Regional Weather Roundup
Issued by NWS Midland/Odessa, TX

Skip options and go directly to product.
Home | Oldest Version | Previous Version | Current Version | All | Text Only | Save Text | Print | Product List | Glossary On

Skip product version selection by date and time.   
782
ASUS44 KMAF 262210
RWRMAF
MIDLAND AREA WEATHER ROUNDUP
NATIONAL WEATHER SERVICE MIDLAND TX
500 PM CDT MON SEP 26 2016

...IN SOUTHWEST TEXAS AND SOUTHEAST NEW MEXICO...

CITY           SKY/WX    TMP DP  RH WIND       PRES   REMARKS
ALPINE         CLOUDY    49  49  99 NE9       30.39S
ANDREWS        NOT AVBL
ARTESIA        CLOUDY    66  46  48 S5        30.32F
BIG SPRING     NOT AVBL
CARLSBAD       LGT RAIN  58  53  84 SW7       30.31F
DRYDEN           N/A     60  59  96 N8        30.21
FORT STOCKTON  LGT RAIN  55  54  96 W9        30.29F
GUAD PASS      CLOUDY    52  43  71 NE33G44   30.33S
HOBBS          PTSUNNY   63  41  45 E7        30.32F
MARFA          LGT RAIN N/A N/A N/A N13G20    30.33R
MIDLAND AIRPK  CLOUDY    70  35  28 NE13      30.27F
MIDLAND INTL   CLOUDY    69  36  29 N13       30.26F
ODESSA         CLOUDY    68  38  33 NE12      30.28F
PECOS          RAIN      58  56  94 W7          N/A
PRESIDIO       LGT RAIN  61  51  70 N17       30.24
SEMINOLE       CLOUDY    65  42  43 E6        30.31F
SNYDER           N/A     70  40  33 CALM      30.24S
WINK           CLOUDY    61  53  75 W6        30.28S
$$
...OTHER STATIONS IN TEXAS...

CITY           SKY/WX    TMP DP  RH WIND       PRES   REMARKS
ABILENE        MOSUNNY   70  51  51 NE10      30.19F
AMARILLO       SUNNY     74  35  24 E8        30.31F
AUSTIN         CLOUDY    71  66  84 N13       30.06F
BROWNSVILLE    CLOUDY    86  74  67 NE12      29.92S
CORPUS CHRISTI CLOUDY    80  72  76 E6        29.95F
DALLAS FTW     CLOUDY    66  58  75 NE8       30.12F
DEL RIO        RAIN      68  64  87 NW13      30.10R FOG
EL PASO        CLOUDY    59  45  59 E14       30.30R
HOUSTON INT    PTSUNNY   85  72  65 N9        29.97F
LUBBOCK        CLOUDY    69  36  29 E14       30.28F
SAN ANGELO     CLOUDY    71  54  54 N13       30.18S
SAN ANTONIO    CLOUDY    73  66  78 N13       30.06R
WACO           CLOUDY    68  61  78 N17       30.10F
WICHITA FALLS  NOT AVBL
$$
...OTHER LOCATIONS IN NEW MEXICO...

CITY           SKY/WX    TMP DP  RH WIND       PRES   REMARKS
ALAMAGORDO     SUNNY     73  32  21 SW9G16    30.25S
ALBUQUERQUE    PTSUNNY   71  29  21 NE9G22    30.33F
CANNON AFB     SUNNY     72  39  30 E15       30.33S
CLOVIS         SUNNY     72  39  30 SE9       30.32F
HOLLOMAN AFB   SUNNY     76  34  21 SW10G20   30.23F
ROSWELL        CLOUDY    71  38  29 S12       30.31S
RUIDOSO        CLOUDY    57  32  38 SE14G22   30.45S
SANTA FE       CLOUDY    69  30  23 VRB6G20   30.38F
TRUTH OR CONSE CLOUDY    73  32  22 SE8       30.27F
TUCUMCARI      SUNNY     76  33  21 CALM      30.30F
$$

USA.gov is the U.S. government's official web portal to all federal, state and local government web resources and services.